Location: Dos Palmas
(32.4468°N, 116.8732°W)
Time: 16:03:58
(UTC+00:00)

Cosmos 220 Rocket - Pass Details

Date: 20 June 2021
Orbit: 575 x 616 km, 74.0° (Epoch: 27 July)

Event Time Altitude Azimuth Distance (km) Brightness Sun altitude
Rises 03:25:38 0° 201° (SSW) 2,828 7.3 -5.9°
Reaches altitude 10° 03:27:53 10° 204° (SSW) 1,923 6.5 -6.3°
Maximum altitude 03:32:09 68° 287° (WNW) 639 4.4 -7.1°
Drops below altitude 10° 03:36:23 10° 11° (N) 1,910 6.9 -7.8°
Sets 03:38:37 0° 14° (NNE) 2,808 7.7 -8.2°
